• In Hungary
  • List of Countries
  • For 7 days
  • Water Temperature
  • Satellite Maps
  • Weather Map
  • News
  • Weather Widgets
  • user-avatar
    Login

    Hourly Weather Kopciowice

    Today, 22 September, Saturday

    Time Temperature Precipitation Wind Pressure Humidity
    00:00 +19°C° 0.1 mm 4 mps 738 mmHg 64%
    01:00 +19°C° 0 mm 4 mps 738 mmHg 67%
    02:00 +17°C° 1.3 mm 5 mps 739 mmHg 72%
    03:00 +15°C° 1.3 mm 5 mps 740 mmHg 78%
    04:00 +13°C° 1.3 mm 5 mps 741 mmHg 84%
    05:00 +13°C° 0.8 mm 4 mps 741 mmHg 83%
    06:00 +13°C° 0.8 mm 3 mps 742 mmHg 82%
    07:00 +13°C° 0 mm 2 mps 743 mmHg 80%
    08:00 +14°C° 0.2 mm 2 mps 743 mmHg 75%
    09:00 +13°C° 0.2 mm 3 mps 743 mmHg 70%
    10:00 +14°C° 0.2 mm 3 mps 743 mmHg 65%
    11:00 +16°C° 0 mm 3 mps 743 mmHg 59%
    12:00 +17°C° 0 mm 4 mps 743 mmHg 52%
    13:00 +19°C° 0 mm 4 mps 743 mmHg 46%
    14:00 +18°C° 0 mm 4 mps 743 mmHg 46%
    15:00 +18°C° 0 mm 4 mps 743 mmHg 47%
    16:00 +18°C° 0 mm 4 mps 742 mmHg 47%
    17:00 +17°C° 0 mm 3 mps 743 mmHg 50%
    18:00 +16°C° 0 mm 3 mps 743 mmHg 54%
    19:00 +15°C° 0 mm 2 mps 743 mmHg 57%
    20:00 +14°C° 0 mm 2 mps 743 mmHg 58%
    21:00 +14°C° 0 mm 2 mps 743 mmHg 58%
    22:00 +13°C° 0 mm 3 mps 743 mmHg 58%
    23:00 +13°C° 0.1 mm 3 mps 743 mmHg 61%

    Tomorrow, 23 September, Sunday

    Time Temperature Precipitation Wind Pressure Humidity
    00:00 +13°C° 0.1 mm 3 mps 743 mmHg 64%
    01:00 +13°C° 0.1 mm 3 mps 743 mmHg 66%
    02:00 +12°C° 0 mm 3 mps 743 mmHg 68%
    03:00 +12°C° 0 mm 3 mps 742 mmHg 70%
    04:00 +11°C° 0 mm 3 mps 742 mmHg 71%
    05:00 +12°C° 0 mm 3 mps 742 mmHg 70%
    06:00 +12°C° 0 mm 3 mps 742 mmHg 69%
    07:00 +12°C° 0 mm 4 mps 742 mmHg 68%
    08:00 +13°C° 0 mm 4 mps 742 mmHg 63%
    09:00 +15°C° 0 mm 5 mps 742 mmHg 58%
    10:00 +16°C° 0 mm 5 mps 742 mmHg 54%
    11:00 +15°C° 0 mm 5 mps 741 mmHg 57%
    12:00 +15°C° 0 mm 5 mps 741 mmHg 61%
    13:00 +15°C° 0 mm 5 mps 740 mmHg 64%
    14:00 +14°C° 0.3 mm 4 mps 740 mmHg 69%
    15:00 +14°C° 0.3 mm 4 mps 739 mmHg 73%
    16:00 +14°C° 0.3 mm 3 mps 738 mmHg 78%
    17:00 +14°C° 0.3 mm 4 mps 737 mmHg 77%
    18:00 +14°C° 0.3 mm 4 mps 736 mmHg 77%
    19:00 +14°C° 0.3 mm 5 mps 735 mmHg 76%
    20:00 +15°C° 0.1 mm 6 mps 734 mmHg 75%
    21:00 +16°C° 0.1 mm 7 mps 733 mmHg 74%
    22:00 +16°C° 0.1 mm 8 mps 732 mmHg 72%
    23:00 +17°C° 2.1 mm 8 mps 732 mmHg 77%

    Day after tomorrow, 24 September, Monday

    Time Temperature Precipitation Wind Pressure Humidity
    00:00 +17°C° 2.1 mm 7 mps 732 mmHg 82%
    01:00 +17°C° 2.1 mm 7 mps 731 mmHg 87%
    02:00 +15°C° 0.9 mm 8 mps 732 mmHg 86%
    03:00 +12°C° 0.9 mm 8 mps 734 mmHg 86%
    04:00 +10°C° 0.9 mm 9 mps 735 mmHg 85%
    05:00 +9°C° 0.2 mm 8 mps 736 mmHg 84%
    06:00 +9°C° 0.2 mm 8 mps 738 mmHg 83%
    07:00 +8°C° 0.2 mm 7 mps 739 mmHg 82%
    08:00 +9°C° 0.1 mm 8 mps 740 mmHg 77%
    09:00 +10°C° 0.1 mm 8 mps 741 mmHg 73%
    10:00 +10°C° 0.1 mm 8 mps 742 mmHg 68%
    11:00 +11°C° 0.2 mm 9 mps 742 mmHg 63%
    12:00 +11°C° 0.2 mm 9 mps 743 mmHg 58%
    13:00 +11°C° 0.2 mm 9 mps 744 mmHg 54%
    14:00 +11°C° 0.1 mm 9 mps 744 mmHg 54%
    15:00 +10°C° 0.1 mm 8 mps 744 mmHg 55%
    16:00 +10°C° 0.2 mm 8 mps 744 mmHg 55%
    17:00 +9°C° 0 mm 7 mps 745 mmHg 57%
    18:00 +8°C° 0 mm 6 mps 745 mmHg 59%
    19:00 +8°C° 0 mm 5 mps 746 mmHg 61%
    20:00 +7°C° 0 mm 5 mps 746 mmHg 63%
    21:00 +7°C° 0 mm 5 mps 747 mmHg 66%
    22:00 +6°C° 0 mm 4 mps 747 mmHg 68%
    23:00 +6°C° 0 mm 4 mps 748 mmHg 70%

    25 September, Tuesday

    Time Temperature Precipitation Wind Pressure Humidity
    00:00 +6°C° 0 mm 4 mps 748 mmHg 71%
    01:00 +5°C° 0 mm 4 mps 749 mmHg 73%
    02:00 +5°C° 0 mm 4 mps 749 mmHg 75%
    03:00 +5°C° 0 mm 4 mps 749 mmHg 76%
    04:00 +4°C° 0 mm 4 mps 750 mmHg 78%
    05:00 +4°C° 0 mm 4 mps 750 mmHg 78%
    06:00 +5°C° 0 mm 4 mps 751 mmHg 78%
    07:00 +5°C° 0 mm 4 mps 752 mmHg 79%
    08:00 +6°C° 0.1 mm 4 mps 752 mmHg 71%
    09:00 +8°C° 0.1 mm 5 mps 753 mmHg 64%
    10:00 +9°C° 0.1 mm 5 mps 753 mmHg 57%
    11:00 +9°C° 0.1 mm 5 mps 753 mmHg 53%
    12:00 +10°C° 0.1 mm 5 mps 753 mmHg 50%
    13:00 +10°C° 0.1 mm 5 mps 754 mmHg 46%
    14:00 +10°C° 0 mm 5 mps 754 mmHg 46%
    15:00 +10°C° 0 mm 5 mps 754 mmHg 46%
    16:00 +10°C° 0 mm 5 mps 754 mmHg 47%
    17:00 +10°C° 0 mm 4 mps 754 mmHg 51%
    18:00 +9°C° 0 mm 3 mps 755 mmHg 55%
    19:00 +8°C° 0 mm 2 mps 755 mmHg 59%
    20:00 +7°C° 0 mm 2 mps 756 mmHg 61%
    21:00 +7°C° 0 mm 2 mps 756 mmHg 63%
    22:00 +7°C° 0 mm 1 mps 757 mmHg 65%
    23:00 +7°C° 0 mm 1 mps 757 mmHg 66%

    26 September, Wednesday

    Time Temperature Precipitation Wind Pressure Humidity
    00:00 +6°C° 0 mm 1 mps 757 mmHg 67%
    01:00 +6°C° 0 mm 1 mps 757 mmHg 68%
    02:00 +6°C° 0 mm 1 mps 757 mmHg 69%
    03:00 +4°C° 0 mm 2 mps 757 mmHg 70%
    04:00 +4°C° 0 mm 2 mps 756 mmHg 70%
    05:00 +5°C° 0 mm 2 mps 756 mmHg 68%
    06:00 +5°C° 0 mm 2 mps 757 mmHg 66%
    07:00 +6°C° 0 mm 2 mps 757 mmHg 63%
    08:00 +8°C° 0 mm 2 mps 756 mmHg 56%
    09:00 +10°C° 0 mm 3 mps 756 mmHg 48%
    10:00 +12°C° 0 mm 4 mps 756 mmHg 40%
    11:00 +13°C° 0 mm 4 mps 755 mmHg 39%
    12:00 +14°C° 0 mm 5 mps 754 mmHg 38%
    13:00 +15°C° 0 mm 5 mps 754 mmHg 36%
    14:00 +15°C° 0 mm 5 mps 753 mmHg 39%
    15:00 +14°C° 0 mm 5 mps 753 mmHg 41%
    16:00 +14°C° 0 mm 5 mps 752 mmHg 43%
    17:00 +13°C° 0 mm 4 mps 752 mmHg 48%
    18:00 +11°C° 0 mm 4 mps 752 mmHg 52%
    19:00 +10°C° 0 mm 4 mps 752 mmHg 56%
    20:00 +10°C° 0 mm 4 mps 752 mmHg 56%
    21:00 +8°C° 0 mm 4 mps 751 mmHg 55%
    22:00 +8°C° 0 mm 4 mps 751 mmHg 55%
    23:00 +8°C° 0 mm 4 mps 751 mmHg 55%

    27 September, Thursday

    Time Temperature Precipitation Wind Pressure Humidity
    00:00 +7°C° 0 mm 4 mps 751 mmHg 55%
    01:00 +7°C° 0 mm 4 mps 750 mmHg 55%
    02:00 +8°C° 0 mm 3 mps 750 mmHg 55%
    03:00 +8°C° 0 mm 3 mps 750 mmHg 56%
    04:00 +7°C° 0 mm 3 mps 749 mmHg 56%
    05:00 +8°C° 0 mm 3 mps 749 mmHg 56%
    06:00 +8°C° 0 mm 3 mps 749 mmHg 55%
    07:00 +9°C° 0 mm 3 mps 749 mmHg 54%
    08:00 +11°C° 0 mm 4 mps 748 mmHg 50%
    09:00 +13°C° 0 mm 4 mps 748 mmHg 46%
    10:00 +17°C° 0 mm 4 mps 748 mmHg 42%
    11:00 +18°C° 0 mm 4 mps 748 mmHg 40%
    12:00 +19°C° 0 mm 4 mps 747 mmHg 38%
    13:00 +20°C° 0 mm 5 mps 747 mmHg 36%
    14:00 +20°C° 0 mm 4 mps 746 mmHg 39%
    15:00 +20°C° 0 mm 4 mps 746 mmHg 41%
    16:00 +19°C° 0 mm 4 mps 745 mmHg 44%
    17:00 +18°C° 0 mm 3 mps 745 mmHg 49%
    18:00 +16°C° 0 mm 3 mps 745 mmHg 53%
    19:00 +14°C° 0 mm 3 mps 745 mmHg 58%
    20:00 +13°C° 0 mm 3 mps 745 mmHg 59%
    21:00 +13°C° 0 mm 3 mps 745 mmHg 60%
    22:00 +12°C° 0 mm 3 mps 745 mmHg 60%
    23:00 +12°C° 0 mm 3 mps 745 mmHg 60%
    Show more